TimeEDT,TemperatureF,Dew PointF,Humidity,Sea Level PressureIn,VisibilityMPH,Wind Direction,Wind SpeedMPH,Gust SpeedMPH,PrecipitationIn,Events,Conditions,WindDirDegrees,DateUTC
12:51 AM,45.0,28.9,53,30.11,10.0,NW,9.2,-,N/A,,Scattered Clouds,320,2013-03-29 04:51:00
1:51 AM,44.1,28.9,55,30.12,10.0,NW,10.4,-,N/A,,Mostly Cloudy,310,2013-03-29 05:51:00
2:51 AM,44.1,28.0,53,30.12,10.0,NW,12.7,-,N/A,,Mostly Cloudy,320,2013-03-29 06:51:00
3:51 AM,44.1,28.9,55,30.12,10.0,NW,11.5,-,N/A,,Scattered Clouds,320,2013-03-29 07:51:00
4:51 AM,43.0,28.0,56,30.12,10.0,NW,10.4,-,N/A,,Scattered Clouds,310,2013-03-29 08:51:00
5:51 AM,42.8,28.4,57,30.12,10.0,NW,11.5,-,N/A,,Partly Cloudy,310,2013-03-29 09:51:00
6:51 AM,42.1,28.0,58,30.12,10.0,NW,10.4,-,N/A,,Partly Cloudy,320,2013-03-29 10:51:00
7:51 AM,42.1,28.0,58,30.14,10.0,WNW,16.1,-,N/A,,Partly Cloudy,300,2013-03-29 11:51:00
8:51 AM,44.1,28.0,53,30.14,10.0,NW,11.5,-,N/A,,Partly Cloudy,310,2013-03-29 12:51:00
9:51 AM,46.0,28.0,50,30.13,10.0,NW,9.2,-,N/A,,Partly Cloudy,310,2013-03-29 13:51:00
10:51 AM,48.9,27.0,43,30.13,10.0,NW,9.2,-,N/A,,Partly Cloudy,320,2013-03-29 14:51:00
11:51 AM,51.1,27.0,39,30.12,10.0,NW,9.2,-,N/A,,Partly Cloudy,310,2013-03-29 15:51:00
12:51 PM,52.0,23.0,32,30.10,10.0,Variable,5.8,-,N/A,,Mostly Cloudy,0,2013-03-29 16:51:00
1:51 PM,54.0,21.9,29,30.08,10.0,West,10.4,-,N/A,,Mostly Cloudy,270,2013-03-29 17:51:00
2:51 PM,53.1,24.1,32,30.06,10.0,NW,5.8,-,N/A,,Mostly Cloudy,310,2013-03-29 18:51:00
3:51 PM,52.0,24.1,34,30.05,10.0,NW,12.7,-,N/A,,Mostly Cloudy,310,2013-03-29 19:51:00
4:51 PM,51.1,26.1,38,30.05,10.0,NW,17.3,24.2,N/A,,Mostly Cloudy,310,2013-03-29 20:51:00
5:51 PM,50.0,27.0,41,30.07,10.0,NW,19.6,-,N/A,,Mostly Cloudy,310,2013-03-29 21:51:00
6:51 PM,48.9,27.0,43,30.08,10.0,WNW,17.3,-,N/A,,Mostly Cloudy,300,2013-03-29 22:51:00
7:51 PM,48.0,25.0,41,30.09,10.0,NNW,15.0,23.0,N/A,,Scattered Clouds,330,2013-03-29 23:51:00
8:51 PM,46.9,28.0,48,30.11,10.0,NW,11.5,-,N/A,,Scattered Clouds,320,2013-03-30 00:51:00
9:51 PM,46.9,26.1,44,30.12,10.0,NNW,10.4,-,N/A,,Scattered Clouds,330,2013-03-30 01:51:00
10:51 PM,46.4,26.6,46,30.13,10.0,NNW,10.4,18.4,N/A,,Mostly Cloudy,330,2013-03-30 02:51:00
11:51 PM,45.0,27.0,49,30.13,10.0,NW,8.1,-,N/A,,Mostly Cloudy,320,2013-03-30 03:51:00